Weather in Key West

United States     24°33′19″N   81°48′17″W
temp.,
°C
wind,
m/s
gust,
m/s
humid.,
%
clouds,
%
prec.,
mm/h
press.,
hPa
HPBL,
m
7 may, fri
fri723:00+27n55760 0.0 1017731
02:00+27ene33745 0.0 1016677
05:00+27nne11734 0.1 1015456
08:00+26n11745 1.8 1017138
11:00+27nnw33716 0.3 1017696
14:00+27nnw44680 0.3 1017712
17:00+27nnw55660 0.0 1015807
20:00+27nnw88751 0.0 1016844
8 may, sat
sat823:00+26nnw77670 0.0 1018734
02:00+26n77560 0.0 1017994
05:00+26n77580 0.0 1016859
08:00+25n6654100 0.0 1017812
11:00+25nne55725 0.0 1018780
14:00+26nne44740 0.0 1018774
17:00+27ene45692 0.0 1016906
20:00+27e88700 0.1 10171024
9 may, sun
sun923:00+27e987217 0.0 10181229
02:00+27ese776967 0.1 10181291
05:00+27ese6766100 0.1 10171341
08:00+27ese88690 0.3 10181164
11:00+27ese88730 0.1 10191039
14:00+27ese88730 0.2 10181017
17:00+27ese88730 0.0 1017947
20:00+27e99740 0.0 1017804
10 may, mon
mon1023:00+27ese99732 0.0 10181062
02:00+27se99727 0.0 10171164
05:00+28se9107385 0.1 10161267
08:00+27se99746 0.1 10171095
11:00+27se78700 0.1 10181085
14:00+28se66700 0.1 1018946
17:00+28ese5569100 0.0 1016757
20:00+28e677024 0.0 1016601
11 may, tue
tue1123:00+28ese77725 0.0 1017803
02:00+28ese66725 0.0 1017953
05:00+27ese66735 0.0 10161016
08:00+28ese667323 0.0 10171007
11:00+28ese55735 0.0 1018907
14:00+28e44722 0.0 1018883
17:00+28e44726 0.0 1016789
20:00+28e567460 0.0 1016668